QPF
0.02 0.03 0.02 0.02 0.02 0.02 0.01 0.01 0.01 0.00 0.00 0.00 0.00 0.00 0.00 0.00 0.00 0.00 0.00 0.00 0.00 0.00 0.00 0.01 0.01 0.01 0.01 0.01 0.01 0.01 0.02 0.02 0.02 0.02 0.02 0.02 0.03 0.03
0.03 0.04 0.03 0.03 0.03 0.02 0.02 0.01 0.01 0.01 0.01 0.00 0.00 0.00 0.00 0.00 0.00 0.00 0.00 0.00 0.00 0.00 0.01 0.01 0.01 0.01 0.01 0.01 0.01 0.01 0.02 0.02 0.02 0.02 0.03 0.03 0.04 0.04
0.03 0.03 0.03 0.03 0.03 0.03 0.02 0.01 0.01 0.01 0.01 0.00 0.00 0.00 0.00 0.00 0.00 0.00 0.00 0.00 0.00 0.00 0.01 0.01 0.01 0.01 0.01 0.01 0.01 0.01 0.02 0.02 0.02 0.02 0.03 0.03 0.03 0.04
0.04 0.03 0.02 0.02 0.02 0.02 0.01 0.01 0.01 0.01 0.01 0.01 0.00 0.00 0.00 0.00 0.00 0.00 0.00 0.00 0.00 0.00 0.00 0.01 0.01 0.01 0.01 0.01 0.01 0.01 0.01 0.01 0.02 0.02 0.03 0.04 0.04 0.05
0.05 0.05 0.04 0.03 0.02 0.01 0.01 0.01 0.01 0.01 0.01 0.01 0.01 0.00 0.00 0.00 0.00 0.00 0.00 0.00 0.00 0.00 0.00 0.00 0.00 0.00 0.01 0.01 0.01 0.01 0.01 0.01 0.02 0.03 0.04 0.04 0.03 0.03
0.05 0.05 0.04 0.04 0.03 0.02 0.02 0.01 0.01 0.01 0.01 0.02 0.01 0.01 0.01 0.00 0.00 0.01 0.01 0.00 0.00 0.00 0.00 0.00 0.00 0.00 0.01 0.01 0.01 0.01 0.01 0.01 0.02 0.04 0.04 0.03 0.02 0.02
0.02 0.03 0.03 0.03 0.03 0.02 0.02 0.02 0.01 0.02 0.02 0.02 0.01 0.01 0.01 0.01 0.01 0.01 0.01 0.01 0.01 0.00 0.00 0.00 0.00 0.00 0.00 0.01 0.01 0.01 0.01 0.01 0.02 0.03 0.03 0.03 0.02 0.02
0.03 0.02 0.02 0.03 0.02 0.02 0.02 0.01 0.01 0.02 0.02 0.02 0.02 0.01 0.01 0.01 0.01 0.01 0.01 0.01 0.01 0.00 0.00 0.00 0.00 0.00 0.00 0.01 0.01 0.01 0.01 0.01 0.01 0.02 0.02 0.02 0.02 0.02
0.02 0.02 0.02 0.02 0.02 0.03 0.02 0.02 0.01 0.01 0.02 0.02 0.02 0.01 0.01 0.01 0.01 0.01 0.01 0.01 0.01 0.00 0.00 0.00 0.00 0.00 0.01 0.00 0.01 0.01 0.01 0.01 0.01 0.02 0.02 0.02 0.03 0.02
0.01 0.01 0.02 0.02 0.02 0.02 0.02 0.02 0.01 0.01 0.01 0.01 0.01 0.01 0.01 0.01 0.01 0.02 0.02 0.02 0.01 0.00 0.00 0.01 0.00 0.01 0.01 0.00 0.00 0.00 0.01 0.01 0.02 0.02 0.02 0.02 0.02 0.02
0.02 0.02 0.02 0.02 0.02 0.02 0.02 0.01 0.01 0.01 0.01 0.01 0.01 0.01 0.01 0.01 0.01 0.02 0.02 0.02 0.01 0.00 0.00 0.01 0.00 0.01 0.01 0.01 0.01 0.01 0.01 0.01 0.02 0.02 0.02 0.02 0.02 0.02
0.01 0.01 0.01 0.01 0.01 0.01 0.01 0.01 0.01 0.01 0.01 0.01 0.00 0.00 0.00 0.00 0.01 0.01 0.01 0.02 0.02 0.02 0.00 0.01 0.01 0.01 0.02 0.01 0.01 0.01 0.01 0.01 0.01 0.01 0.01 0.01 0.01 0.01
0.01 0.01 0.01 0.01 0.01 0.01 0.01 0.01 0.01 0.01 0.01 0.01 0.01 0.00 0.00 0.00 0.00 0.00 0.01 0.02 0.03 0.02 0.01 0.01 0.01 0.02 0.02 0.01 0.01 0.01 0.01 0.01 0.01 0.01 0.00 0.01 0.01 0.02
0.02 0.01 0.01 0.01 0.01 0.01 0.01 0.01 0.01 0.01 0.01 0.01 0.01 0.01 0.00 0.00 0.00 0.00 0.00 0.01 0.01 0.01 0.01 0.01 0.02 0.02 0.03 0.02 0.01 0.01 0.01 0.01 0.00 0.00 0.00 0.01 0.01 0.01
0.02 0.02 0.02 0.01 0.01 0.01 0.01 0.01 0.01 0.01 0.01 0.01 0.01 0.01 0.00 0.00 0.00 0.00 0.00 0.01 0.00 0.00 0.00 0.01 0.01 0.02 0.03 0.03 0.02 0.01 0.01 0.00 0.00 0.00 0.01 0.01 0.01 0.01
0.02 0.02 0.02 0.01 0.01 0.01 0.01 0.01 0.01 0.01 0.01 0.01 0.01 0.01 0.00 0.00 0.00 0.01 0.01 0.01 0.01 0.01 0.01 0.01 0.01 0.02 0.03 0.02 0.02 0.01 0.01 0.01 0.01 0.00 0.01 0.00 0.01 0.01
0.02 0.02 0.02 0.01 0.01 0.01 0.01 0.01 0.01 0.01 0.01 0.01 0.01 0.01 0.01 0.01 0.01 0.01 0.01 0.01 0.02 0.02 0.01 0.01 0.01 0.02 0.02 0.02 0.02 0.01 0.01 0.01 0.01 0.01 0.01 0.01 0.01 0.01
0.03 0.02 0.02 0.02 0.02 0.01 0.01 0.01 0.01 0.01 0.01 0.01 0.01 0.01 0.01 0.01 0.01 0.02 0.02 0.02 0.02 0.02 0.02 0.01 0.02 0.02 0.02 0.02 0.02 0.02 0.02 0.01 0.01 0.01 0.01 0.02 0.02 0.02
0.03 0.02 0.02 0.02 0.02 0.02 0.02 0.02 0.01 0.01 0.01 0.01 0.01 0.02 0.02 0.02 0.03 0.03 0.03 0.02 0.02 0.02 0.02 0.02 0.02 0.03 0.03 0.02 0.02 0.02 0.03 0.03 0.02 0.02 0.02 0.03 0.03 0.02
0.03 0.03 0.03 0.02 0.02 0.02 0.02 0.02 0.01 0.01 0.01 0.02 0.02 0.02 0.03 0.03 0.03 0.03 0.02 0.02 0.02 0.02 0.01 0.01 0.02 0.04 0.05 0.04 0.03 0.03 0.04 0.05 0.04 0.03 0.03 0.03 0.03 0.03
0.03 0.03 0.02 0.02 0.02 0.01 0.01 0.01 0.02 0.02 0.02 0.02 0.02 0.02 0.02 0.03 0.03 0.02 0.02 0.02 0.02 0.02 0.02 0.02 0.02 0.03 0.04 0.04 0.03 0.02 0.02 0.03 0.04 0.06 0.05 0.04 0.03 0.03
0.02 0.02 0.02 0.02 0.02 0.02 0.02 0.02 0.02 0.02 0.02 0.02 0.02 0.02 0.02 0.02 0.02 0.02 0.02 0.02 0.02 0.02 0.02 0.01 0.01 0.02 0.03 0.03 0.03 0.02 0.02 0.02 0.03 0.04 0.05 0.06 0.06 0.07
0.02 0.02 0.02 0.02 0.01 0.01 0.02 0.02 0.02 0.01 0.01 0.01 0.01 0.02 0.02 0.02 0.02 0.02 0.02 0.02 0.02 0.02 0.02 0.01 0.01 0.02 0.02 0.02 0.02 0.02 0.02 0.02 0.02 0.02 0.04 0.04 0.04 0.05
MSLP
1015.37 1015.80 1016.20 1016.59 1016.94 1017.29 1017.66 1018.06 1018.52 1019.05 1019.65 1020.28 1020.92 1021.52 1022.03 1022.42 1022.67 1022.77 1022.73 1022.57 1022.33 1022.02 1021.68 1021.33 1020.97 1020.60 1020.21 1019.79 1019.34 1018.85 1018.33 1017.79 1017.24 1016.71 1016.19 1015.70 1015.24 1014.80
1015.05 1015.53 1015.98 1016.39 1016.78 1017.16 1017.54 1017.96 1018.44 1018.99 1019.60 1020.25 1020.89 1021.49 1022.00 1022.37 1022.59 1022.65 1022.56 1022.35 1022.05 1021.71 1021.34 1020.97 1020.60 1020.24 1019.87 1019.47 1019.04 1018.56 1018.04 1017.50 1016.93 1016.37 1015.83 1015.32 1014.83 1014.38
1014.91 1015.46 1015.97 1016.43 1016.87 1017.27 1017.69 1018.14 1018.64 1019.20 1019.82 1020.46 1021.10 1021.68 1022.14 1022.47 1022.62 1022.60 1022.43 1022.14 1021.76 1021.35 1020.94 1020.54 1020.16 1019.81 1019.46 1019.09 1018.69 1018.23 1017.73 1017.19 1016.62 1016.04 1015.48 1014.95 1014.44 1013.97
1014.96 1015.58 1016.16 1016.68 1017.16 1017.61 1018.06 1018.53 1019.05 1019.62 1020.24 1020.88 1021.49 1022.02 1022.43 1022.68 1022.75 1022.64 1022.37 1021.98 1021.51 1021.02 1020.54 1020.11 1019.71 1019.36 1019.02 1018.67 1018.29 1017.86 1017.38 1016.84 1016.27 1015.69 1015.11 1014.56 1014.04 1013.55
1015.19 1015.88 1016.52 1017.10 1017.62 1018.11 1018.58 1019.08 1019.61 1020.18 1020.79 1021.41 1021.98 1022.46 1022.81 1022.98 1022.96 1022.76 1022.39 1021.90 1021.35 1020.78 1020.23 1019.75 1019.32 1018.95 1018.60 1018.25 1017.88 1017.45 1016.97 1016.44 1015.87 1015.28 1014.69 1014.13 1013.59 1013.08
1015.59 1016.33 1017.02 1017.63 1018.19 1018.70 1019.19 1019.69 1020.22 1020.79 1021.38 1021.97 1022.50 1022.94 1023.23 1023.33 1023.24 1022.96 1022.51 1021.95 1021.32 1020.68 1020.08 1019.54 1019.06 1018.64 1018.26 1017.88 1017.48 1017.03 1016.53 1015.98 1015.39 1014.79 1014.19 1013.61 1013.07 1012.55
1016.13 1016.90 1017.61 1018.24 1018.80 1019.32 1019.81 1020.31 1020.83 1021.37 1021.94 1022.49 1022.99 1023.38 1023.63 1023.69 1023.55 1023.23 1022.75 1022.14 1021.47 1020.79 1020.13 1019.53 1018.99 1018.51 1018.05 1017.60 1017.13 1016.62 1016.06 1015.46 1014.84 1014.21 1013.59 1013.01 1012.46 1011.93
1016.77 1017.55 1018.25 1018.88 1019.43 1019.93 1020.41 1020.88 1021.37 1021.89 1022.42 1022.94 1023.40 1023.76 1023.98 1024.02 1023.88 1023.56 1023.07 1022.47 1021.80 1021.10 1020.41 1019.76 1019.15 1018.57 1018.01 1017.45 1016.87 1016.25 1015.60 1014.92 1014.24 1013.57 1012.92 1012.33 1011.77 1011.25
1017.48 1018.23 1018.91 1019.52 1020.05 1020.52 1020.97 1021.41 1021.87 1022.34 1022.82 1023.29 1023.72 1024.05 1024.26 1024.31 1024.19 1023.90 1023.47 1022.91 1022.26 1021.58 1020.88 1020.18 1019.50 1018.83 1018.15 1017.45 1016.72 1015.96 1015.19 1014.40 1013.63 1012.90 1012.23 1011.61 1011.05 1010.53
1018.23 1018.94 1019.59 1020.16 1020.66 1021.11 1021.52 1021.92 1022.32 1022.74 1023.17 1023.59 1023.97 1024.27 1024.47 1024.54 1024.46 1024.23 1023.86 1023.38 1022.80 1022.15 1021.47 1020.75 1020.00 1019.23 1018.42 1017.57 1016.69 1015.78 1014.86 1013.95 1013.08 1012.28 1011.55 1010.90 1010.33 1009.80
1018.99 1019.66 1020.27 1020.82 1021.29 1021.71 1022.08 1022.44 1022.79 1023.15 1023.51 1023.86 1024.18 1024.45 1024.63 1024.71 1024.66 1024.50 1024.21 1023.81 1023.31 1022.72 1022.07 1021.34 1020.55 1019.69 1018.77 1017.78 1016.75 1015.68 1014.62 1013.59 1012.63 1011.74 1010.95 1010.27 1009.66 1009.11
1019.75 1020.38 1020.97 1021.50 1021.96 1022.35 1022.70 1023.01 1023.31 1023.60 1023.88 1024.15 1024.39 1024.60 1024.74 1024.81 1024.79 1024.67 1024.45 1024.13 1023.71 1023.19 1022.58 1021.86 1021.04 1020.12 1019.11 1018.01 1016.85 1015.66 1014.48 1013.34 1012.28 1011.32 1010.47 1009.73 1009.08 1008.50
1020.51 1021.12 1021.70 1022.22 1022.67 1023.06 1023.38 1023.66 1023.91 1024.12 1024.31 1024.49 1024.64 1024.76 1024.84 1024.87 1024.84 1024.74 1024.57 1024.31 1023.95 1023.49 1022.92 1022.22 1021.40 1020.45 1019.38 1018.20 1016.95 1015.67 1014.40 1013.17 1012.03 1011.00 1010.09 1009.30 1008.60 1007.96
1021.28 1021.88 1022.45 1022.98 1023.43 1023.82 1024.13 1024.38 1024.57 1024.72 1024.82 1024.90 1024.94 1024.96 1024.96 1024.92 1024.85 1024.73 1024.56 1024.33 1024.01 1023.59 1023.05 1022.38 1021.56 1020.60 1019.50 1018.29 1016.99 1015.65 1014.32 1013.04 1011.85 1010.76 1009.79 1008.94 1008.18 1007.48
1022.07 1022.66 1023.23 1023.76 1024.22 1024.61 1024.91 1025.14 1025.29 1025.37 1025.39 1025.37 1025.31 1025.22 1025.11 1024.98 1024.84 1024.68 1024.48 1024.24 1023.92 1023.52 1022.99 1022.33 1021.53 1020.56 1019.46 1018.23 1016.92 1015.56 1014.20 1012.89 1011.66 1010.53 1009.52 1008.61 1007.79 1007.03
1022.87 1023.46 1024.02 1024.54 1025.01 1025.39 1025.68 1025.89 1026.00 1026.03 1025.99 1025.88 1025.72 1025.53 1025.32 1025.10 1024.87 1024.64 1024.38 1024.10 1023.75 1023.33 1022.79 1022.13 1021.32 1020.36 1019.26 1018.03 1016.72 1015.36 1013.99 1012.67 1011.42 1010.26 1009.20 1008.24 1007.36 1006.53
1023.69 1024.25 1024.79 1025.29 1025.74 1026.11 1026.40 1026.58 1026.67 1026.67 1026.57 1026.40 1026.17 1025.90 1025.60 1025.29 1024.97 1024.65 1024.32 1023.97 1023.57 1023.09 1022.52 1021.83 1021.00 1020.03 1018.93 1017.70 1016.39 1015.04 1013.67 1012.34 1011.07 1009.88 1008.78 1007.77 1006.83 1005.95
1024.51 1025.02 1025.51 1025.98 1026.39 1026.74 1027.00 1027.17 1027.24 1027.22 1027.10 1026.90 1026.62 1026.30 1025.94 1025.55 1025.16 1024.76 1024.35 1023.91 1023.43 1022.88 1022.25 1021.50 1020.64 1019.64 1018.52 1017.29 1015.98 1014.62 1013.25 1011.90 1010.61 1009.38 1008.24 1007.18 1006.19 1005.26
1025.29 1025.73 1026.16 1026.57 1026.93 1027.23 1027.47 1027.62 1027.68 1027.65 1027.53 1027.32 1027.04 1026.69 1026.30 1025.87 1025.42 1024.95 1024.45 1023.93 1023.36 1022.73 1022.02 1021.21 1020.28 1019.24 1018.09 1016.84 1015.52 1014.15 1012.76 1011.39 1010.07 1008.80 1007.61 1006.49 1005.44 1004.47
1026.02 1026.39 1026.73 1027.06 1027.35 1027.60 1027.80 1027.93 1027.99 1027.96 1027.84 1027.65 1027.38 1027.03 1026.63 1026.18 1025.69 1025.17 1024.61 1024.01 1023.36 1022.64 1021.85 1020.97 1019.98 1018.89 1017.70 1016.43 1015.08 1013.69 1012.28 1010.88 1009.51 1008.19 1006.94 1005.76 1004.65 1003.62
1026.69 1026.96 1027.21 1027.45 1027.67 1027.86 1028.01 1028.11 1028.15 1028.13 1028.03 1027.86 1027.61 1027.28 1026.89 1026.43 1025.92 1025.36 1024.75 1024.09 1023.37 1022.58 1021.72 1020.77 1019.74 1018.61 1017.39 1016.09 1014.72 1013.31 1011.88 1010.45 1009.03 1007.66 1006.34 1005.08 1003.91 1002.81
1027.27 1027.45 1027.61 1027.76 1027.90 1028.02 1028.11 1028.18 1028.21 1028.18 1028.09 1027.94 1027.71 1027.40 1027.02 1026.57 1026.05 1025.47 1024.82 1024.11 1023.34 1022.50 1021.59 1020.61 1019.55 1018.40 1017.17 1015.87 1014.51 1013.09 1011.64 1010.19 1008.73 1007.30 1005.91 1004.57 1003.31 1002.15
1027.76 1027.86 1027.94 1028.01 1028.07 1028.12 1028.16 1028.18 1028.18 1028.14 1028.05 1027.90 1027.68 1027.38 1027.01 1026.56 1026.03 1025.43 1024.76 1024.03 1023.23 1022.37 1021.45 1020.46 1019.40 1018.27 1017.07 1015.79 1014.46 1013.07 1011.63 1010.16 1008.68 1007.20 1005.74 1004.33 1002.98 1001.73
Thickness
5569 5565 5562 5558 5553 5550 5547 5544 5541 5541 5542 5537 5529 5523 5517 5513 5509 5506 5504 5502 5499 5497 5495 5494 5492 5490 5489 5487 5486 5485 5484 5483 5482 5482 5482 5482 5483 5484
5558 5555 5551 5548 5543 5538 5534 5531 5529 5527 5527 5526 5518 5512 5505 5501 5497 5495 5493 5490 5488 5486 5484 5482 5480 5478 5476 5475 5473 5471 5470 5469 5468 5468 5468 5469 5469 5470
5547 5544 5540 5535 5532 5528 5524 5520 5516 5513 5512 5512 5506 5500 5495 5491 5488 5485 5482 5480 5479 5475 5473 5470 5468 5466 5465 5463 5461 5459 5458 5457 5456 5456 5455 5456 5456 5458
5537 5533 5529 5524 5520 5517 5513 5509 5506 5502 5499 5498 5495 5490 5486 5481 5478 5475 5472 5470 5468 5466 5463 5461 5458 5456 5454 5452 5450 5448 5447 5445 5444 5444 5443 5444 5445 5446
5526 5522 5518 5513 5510 5506 5502 5498 5495 5491 5488 5486 5484 5479 5476 5471 5468 5466 5463 5460 5458 5456 5453 5451 5449 5447 5445 5442 5440 5438 5436 5435 5434 5433 5432 5433 5434 5436
5514 5510 5506 5503 5499 5496 5491 5488 5484 5481 5478 5475 5472 5469 5465 5461 5458 5456 5455 5452 5450 5447 5444 5442 5440 5438 5435 5433 5431 5429 5427 5425 5424 5423 5423 5423 5424 5426
5503 5499 5495 5491 5487 5484 5480 5477 5474 5471 5467 5464 5462 5459 5456 5451 5448 5445 5443 5443 5441 5437 5435 5434 5432 5430 5427 5425 5422 5420 5418 5416 5415 5414 5414 5414 5415 5417
5493 5488 5485 5480 5477 5472 5469 5466 5463 5460 5457 5453 5451 5448 5446 5442 5438 5434 5431 5430 5431 5428 5423 5423 5420 5420 5418 5415 5413 5411 5409 5407 5406 5406 5406 5406 5407 5408
5481 5477 5474 5470 5466 5462 5459 5455 5452 5448 5445 5442 5440 5438 5435 5431 5426 5423 5420 5417 5417 5415 5411 5413 5411 5409 5408 5406 5403 5401 5399 5398 5397 5397 5397 5398 5398 5399
5470 5467 5463 5460 5455 5451 5449 5445 5442 5438 5435 5431 5429 5427 5423 5419 5414 5411 5408 5406 5405 5403 5399 5400 5402 5400 5398 5397 5394 5392 5390 5389 5388 5388 5389 5389 5389 5390
5458 5455 5452 5448 5445 5441 5438 5435 5432 5428 5424 5421 5418 5415 5412 5408 5403 5400 5398 5396 5396 5395 5389 5387 5389 5389 5389 5388 5386 5382 5380 5380 5379 5379 5380 5380 5380 5381
5447 5444 5440 5437 5434 5430 5427 5424 5421 5418 5415 5412 5409 5405 5402 5398 5393 5389 5386 5384 5383 5383 5381 5375 5375 5373 5377 5380 5376 5374 5373 5372 5371 5371 5371 5371 5371 5372
5437 5434 5430 5426 5423 5419 5416 5413 5411 5407 5404 5402 5399 5396 5392 5389 5385 5380 5376 5372 5371 5370 5368 5363 5362 5360 5359 5364 5367 5365 5363 5363 5363 5363 5364 5364 5364 5364
5426 5423 5420 5416 5412 5409 5406 5403 5399 5396 5393 5391 5389 5386 5383 5379 5375 5371 5367 5363 5360 5358 5356 5352 5350 5349 5349 5351 5355 5358 5355 5354 5354 5355 5356 5357 5358 5358
5414 5411 5408 5404 5401 5398 5395 5392 5389 5386 5383 5380 5378 5375 5371 5368 5364 5362 5358 5355 5353 5350 5347 5344 5342 5341 5339 5340 5343 5345 5346 5348 5347 5347 5349 5350 5351 5352
5402 5399 5396 5394 5390 5387 5385 5382 5379 5375 5372 5369 5366 5363 5360 5358 5355 5353 5351 5349 5347 5345 5341 5338 5336 5334 5334 5334 5334 5336 5336 5338 5340 5340 5341 5343 5344 5345
5390 5388 5386 5383 5381 5378 5375 5372 5368 5365 5362 5359 5356 5354 5351 5349 5347 5344 5342 5340 5338 5338 5336 5333 5330 5328 5327 5327 5328 5330 5331 5332 5332 5333 5334 5337 5340 5340
5380 5378 5376 5374 5371 5368 5365 5361 5358 5355 5352 5349 5347 5344 5342 5340 5339 5337 5334 5332 5331 5330 5328 5326 5324 5324 5324 5325 5322 5323 5323 5324 5325 5326 5327 5329 5334 5335
5370 5368 5366 5363 5360 5357 5354 5351 5349 5346 5343 5340 5338 5336 5334 5332 5331 5329 5327 5325 5323 5322 5320 5318 5316 5315 5317 5320 5321 5315 5313 5316 5318 5320 5321 5322 5326 5330
5359 5357 5355 5352 5349 5347 5344 5342 5340 5337 5335 5333 5331 5329 5327 5326 5324 5322 5320 5318 5316 5314 5313 5311 5309 5306 5305 5307 5309 5310 5306 5306 5309 5313 5316 5318 5320 5324
5349 5346 5344 5342 5340 5338 5336 5334 5331 5330 5328 5326 5325 5323 5321 5319 5317 5315 5312 5310 5308 5307 5306 5305 5302 5299 5298 5298 5300 5305 5305 5302 5301 5303 5307 5310 5315 5320
5339 5337 5335 5333 5331 5329 5328 5326 5324 5323 5322 5320 5318 5317 5314 5312 5310 5307 5305 5303 5301 5300 5299 5298 5296 5294 5293 5293 5295 5298 5300 5301 5300 5300 5300 5301 5303 5309
5330 5328 5327 5325 5324 5322 5321 5319 5318 5317 5315 5313 5311 5310 5307 5305 5302 5300 5297 5296 5294 5293 5292 5292 5291 5290 5289 5288 5289 5291 5293 5296 5298 5300 5301 5300 5300 5303